Zurück zum Katalog

MUSAT2

AktivWetterSSO
NORAD 59099·PAYLOAD·🇺🇸 United States

Gestartet Mar 4, 2024 von Vandenberg Space Force Base

Loading…

Nächste Überflüge (nächste 24 Stunden)

TLE

AktuellSource: Space-Track

Epoche: Sep 14, 2026, 08:56 UTC

1 59099U 24043B   26257.37235615  .00004494  00000-0  28414-3 0  9992
2 59099  97.8730  38.2368 0007732  40.4533 319.7269 15.09543327138543

Verfolge MUSAT2 in Echtzeit mit AllMySat

Download on the App Store